Location: Banios
(43.0451°N, 0.2335°E)
Time: 01:19:34
(UTC+00:00)

Transit 4A - Visible Passes

Search period start: 12 May 2021 00:00
Search period end: 22 May 2021 00:00
Orbit: 870 x 974 km, 66.8° (Epoch: 11 May)

Date Brightness Start Highest point End Pass type
(mag) Time Alt. Az. Time Alt. Az. Time Alt. Az.
12 May 10.8 00:57:52 10° N 01:00:33 13° NNE 01:03:10 10° ENE visible
12 May 8.6 02:42:36 10° NNW 02:48:21 52° NE 02:53:59 10° SE visible
12 May 10.3 19:37:25 10° WSW 19:42:40 29° NW 19:47:49 10° NNE visible
13 May 10.5 01:06:36 10° N 01:10:20 17° NE 01:14:02 10° ENE visible
13 May 8.0 02:51:51 10° NNW 02:57:43 75° ENE 03:03:31 10° SE visible
13 May 10.6 19:47:43 10° W 19:52:18 21° NW 19:56:49 10° N visible
14 May 10.1 01:15:30 10° N 01:20:02 22° NE 01:24:30 10° E visible
14 May 7.7 03:01:10 10° NW 03:07:01 76° WSW 03:12:48 10° SSE visible
14 May 10.7 19:58:17 10° WNW 20:02:01 16° NW 20:05:42 10° N visible
15 May 9.6 01:24:31 10° NNW 01:29:38 30° NE 01:34:42 10° ESE visible
15 May 7.9 03:10:36 10° NW 03:16:14 51° WSW 03:21:49 10° S visible
15 May 10.9 20:09:17 10° NW 20:11:50 13° NNW 20:14:21 10° N visible
15 May 10.7 23:49:30 10° N 23:51:05 11° NNE 23:52:41 10° NE visible
16 May 9.0 01:33:37 10° NNW 01:39:09 41° NE 01:44:38 10° ESE visible
16 May 8.4 03:20:11 10° NW 03:25:22 34° WSW 03:30:32 10° S visible
16 May 10.5 23:57:52 10° N 00:00:56 14° NNE 00:04:00 10° ENE visible
17 May 8.3 01:42:48 10° NNW 01:48:36 59° NE 01:54:19 10° SE visible
17 May 8.9 03:30:02 10° WNW 03:34:27 23° WSW 03:38:51 10° SSW visible
18 May 10.2 00:06:40 10° N 00:10:42 19° NE 00:14:42 10° E visible
18 May 7.7 01:52:04 10° NNW 01:57:56 85° ENE 02:03:39 11° SSE visible
18 May 9.3 03:40:24 10° WNW 03:43:27 15° WSW 03:46:30 10° SW visible
19 May 9.8 00:15:37 10° NNW 00:20:22 25° NE 00:25:04 10° E visible
19 May 7.7 02:01:25 10° NW 02:07:12 66° WSW 02:10:43 24° SSE visible
20 May 9.2 00:24:40 10° NNW 00:29:57 33° NE 00:34:57 11° ESE visible
20 May 8.1 02:10:54 10° NW 02:16:24 44° WSW 02:18:22 33° SSW visible
20 May 10.4 22:49:17 10° N 22:51:31 12° NNE 22:53:43 10° NE visible
21 May 8.6 00:33:48 10° NNW 00:39:26 47° NE 00:42:54 22° ESE visible
21 May 8.5 02:20:34 10° NW 02:25:31 29° WSW 02:26:20 28° SW visible
21 May 10.2 22:57:53 10° N 23:01:20 16° NE 23:04:45 10° ENE visible
